Year,Month,Day,Hour,Minute,Value (Times are PST for temperature in C)
2014,06,01,00,00,16.10
2014,06,01,00,01,16.10
2014,06,01,00,02,16.10
2014,06,01,00,03,16.00
2014,06,01,00,04,16.00
2014,06,01,00,05,16.10
2014,06,01,00,06,16.10
2014,06,01,00,07,16.10
2014,06,01,00,08,16.10
2014,06,01,00,09,16.10
2014,06,01,00,10,16.10
2014,06,01,00,11,16.10
2014,06,01,00,12,16.10
2014,06,01,00,13,16.10
2014,06,01,00,14,16.10
2014,06,01,00,15,16.10
2014,06,01,00,16,16.10
2014,06,01,00,17,16.10
2014,06,01,00,18,16.10
2014,06,01,00,19,16.10
2014,06,01,00,20,16.10
2014,06,01,00,21,16.10
2014,06,01,00,22,16.00
2014,06,01,00,23,16.00
2014,06,01,00,24,16.00
2014,06,01,00,25,16.00
2014,06,01,00,26,16.00
2014,06,01,00,27,16.00
2014,06,01,00,28,16.10
2014,06,01,00,29,16.10
2014,06,01,00,30,16.10
2014,06,01,00,31,16.10
2014,06,01,00,32,16.10
2014,06,01,00,33,16.10
2014,06,01,00,34,16.10
2014,06,01,00,35,16.00
2014,06,01,00,36,16.00
2014,06,01,00,37,16.00
2014,06,01,00,38,16.00
2014,06,01,00,39,16.00
2014,06,01,00,40,16.00
2014,06,01,00,41,16.00
2014,06,01,00,42,15.90
2014,06,01,00,43,15.90
2014,06,01,00,44,15.90
2014,06,01,00,45,15.90
2014,06,01,00,46,15.90
2014,06,01,00,47,15.90
2014,06,01,00,48,15.90
2014,06,01,00,49,15.90
2014,06,01,00,50,15.80
2014,06,01,00,51,15.80
2014,06,01,00,52,15.70
2014,06,01,00,53,15.70
2014,06,01,00,54,15.60
2014,06,01,00,55,15.60
2014,06,01,00,56,15.60
2014,06,01,00,57,15.60
2014,06,01,00,58,15.60
2014,06,01,00,59,15.60
2014,06,01,01,00,15.60
2014,06,01,01,01,15.60
2014,06,01,01,02,15.60
2014,06,01,01,03,15.60
2014,06,01,01,04,15.60
2014,06,01,01,05,15.60
2014,06,01,01,06,15.60
2014,06,01,01,07,15.50
2014,06,01,01,08,15.50
2014,06,01,01,09,15.40
2014,06,01,01,10,15.40
2014,06,01,01,11,15.40
2014,06,01,01,12,15.40
2014,06,01,01,13,15.40
2014,06,01,01,14,15.40
2014,06,01,01,15,15.40
2014,06,01,01,16,15.40
2014,06,01,01,17,15.40
2014,06,01,01,18,15.40
2014,06,01,01,19,15.40
2014,06,01,01,20,15.40
2014,06,01,01,21,15.40
2014,06,01,01,22,15.40
2014,06,01,01,23,15.40
2014,06,01,01,24,15.40
2014,06,01,01,25,15.40
2014,06,01,01,26,15.30
2014,06,01,01,27,15.30
2014,06,01,01,28,15.30
2014,06,01,01,29,15.30
2014,06,01,01,30,15.30
2014,06,01,01,31,15.30
2014,06,01,01,32,15.30
2014,06,01,01,33,15.30
2014,06,01,01,34,15.20
2014,06,01,01,35,15.20
2014,06,01,01,36,15.30
2014,06,01,01,37,15.30
2014,06,01,01,38,15.30
2014,06,01,01,39,15.20
2014,06,01,01,40,15.20
2014,06,01,01,41,15.20
2014,06,01,01,42,15.20
2014,06,01,01,43,15.20
2014,06,01,01,44,15.30
2014,06,01,01,45,15.40
2014,06,01,01,46,15.40
2014,06,01,01,47,15.40
2014,06,01,01,48,15.40
2014,06,01,01,49,15.40
2014,06,01,01,50,15.30
2014,06,01,01,51,15.30
2014,06,01,01,52,15.30
2014,06,01,01,53,15.30
2014,06,01,01,54,15.30
2014,06,01,01,55,15.30
2014,06,01,01,56,15.30
2014,06,01,01,57,15.30
2014,06,01,01,58,15.30
2014,06,01,01,59,15.20
2014,06,01,02,00,15.20
2014,06,01,02,01,15.20
2014,06,01,02,02,15.20
2014,06,01,02,03,15.20
2014,06,01,02,04,15.20
2014,06,01,02,05,15.20
2014,06,01,02,06,15.20
2014,06,01,02,07,15.20
2014,06,01,02,08,15.20
2014,06,01,02,09,15.20
2014,06,01,02,10,15.20
2014,06,01,02,11,15.10
2014,06,01,02,12,15.10
2014,06,01,02,13,15.10
2014,06,01,02,14,15.10
2014,06,01,02,15,15.10
2014,06,01,02,16,15.20
2014,06,01,02,17,15.20
2014,06,01,02,18,15.20
2014,06,01,02,19,15.20
2014,06,01,02,20,15.20
2014,06,01,02,21,15.10
2014,06,01,02,22,15.10
2014,06,01,02,23,15.10
2014,06,01,02,24,15.10
2014,06,01,02,25,15.10
2014,06,01,02,26,15.10
2014,06,01,02,27,15.10
2014,06,01,02,28,15.10
2014,06,01,02,29,15.10
2014,06,01,02,30,15.10
2014,06,01,02,31,15.10
2014,06,01,02,32,15.10
2014,06,01,02,33,15.10
2014,06,01,02,34,15.10
2014,06,01,02,35,15.10
2014,06,01,02,36,15.10
2014,06,01,02,37,15.10
2014,06,01,02,38,15.10
2014,06,01,02,39,15.20
2014,06,01,02,40,15.20
2014,06,01,02,41,15.30
2014,06,01,02,42,15.30
2014,06,01,02,43,15.30
2014,06,01,02,44,15.20
2014,06,01,02,45,15.20
2014,06,01,02,46,15.20
2014,06,01,02,47,15.20
2014,06,01,02,48,15.20
2014,06,01,02,49,15.20
2014,06,01,02,50,15.20
2014,06,01,02,51,15.20
2014,06,01,02,52,15.20
2014,06,01,02,53,15.10
2014,06,01,02,54,15.10
2014,06,01,02,55,15.10
2014,06,01,02,56,15.10
2014,06,01,02,57,15.00
2014,06,01,02,58,15.00
2014,06,01,02,59,15.00
2014,06,01,03,00,15.00
2014,06,01,03,01,15.00
2014,06,01,03,02,15.00
2014,06,01,03,03,14.90
2014,06,01,03,04,14.90
2014,06,01,03,05,14.90
2014,06,01,03,06,14.90
2014,06,01,03,07,14.90
2014,06,01,03,08,14.90
2014,06,01,03,09,14.90
2014,06,01,03,10,14.80
2014,06,01,03,11,14.80
2014,06,01,03,12,14.80
2014,06,01,03,13,14.80
2014,06,01,03,14,14.80
2014,06,01,03,15,14.80
2014,06,01,03,16,14.80
2014,06,01,03,17,14.80
2014,06,01,03,18,14.80
2014,06,01,03,19,14.80
2014,06,01,03,20,14.80
2014,06,01,03,21,14.80
2014,06,01,03,22,14.80
2014,06,01,03,23,14.80
2014,06,01,03,24,14.80
2014,06,01,03,25,14.80
2014,06,01,03,26,14.80
2014,06,01,03,27,14.80
2014,06,01,03,28,14.90
2014,06,01,03,29,14.90
2014,06,01,03,30,15.00
2014,06,01,03,31,15.00
2014,06,01,03,32,15.10
2014,06,01,03,33,15.10
2014,06,01,03,34,15.00
2014,06,01,03,35,15.00
2014,06,01,03,36,15.00
2014,06,01,03,37,15.00
2014,06,01,03,38,14.90
2014,06,01,03,39,14.90
2014,06,01,03,40,14.90
2014,06,01,03,41,14.90
2014,06,01,03,42,14.90
2014,06,01,03,43,14.90
2014,06,01,03,44,14.90
2014,06,01,03,45,14.90
2014,06,01,03,46,14.90
2014,06,01,03,47,14.90
2014,06,01,03,48,14.90
2014,06,01,03,49,14.90
2014,06,01,03,50,14.90
2014,06,01,03,51,14.90
2014,06,01,03,52,14.90
2014,06,01,03,53,14.90
2014,06,01,03,54,14.90
2014,06,01,03,55,14.90
2014,06,01,03,56,14.90
2014,06,01,03,57,14.90
2014,06,01,03,58,14.80
2014,06,01,03,59,14.80
2014,06,01,04,00,14.70
2014,06,01,04,01,14.70
2014,06,01,04,02,14.70
2014,06,01,04,03,14.60
2014,06,01,04,04,14.50
2014,06,01,04,05,14.50
2014,06,01,04,06,14.40
2014,06,01,04,07,14.30
2014,06,01,04,08,14.20
2014,06,01,04,09,14.20
2014,06,01,04,10,14.20
2014,06,01,04,11,14.20
2014,06,01,04,12,14.20
2014,06,01,04,13,14.30
2014,06,01,04,14,14.30
2014,06,01,04,15,14.30
2014,06,01,04,16,14.20
2014,06,01,04,17,14.20
2014,06,01,04,18,14.20
2014,06,01,04,19,14.20
2014,06,01,04,20,14.20
2014,06,01,04,21,14.20
2014,06,01,04,22,14.20
2014,06,01,04,23,14.20
2014,06,01,04,24,14.30
2014,06,01,04,25,14.40
2014,06,01,04,26,14.40
2014,06,01,04,27,14.40
2014,06,01,04,28,14.40
2014,06,01,04,29,14.30
2014,06,01,04,30,14.30
2014,06,01,04,31,14.20
2014,06,01,04,32,14.20
2014,06,01,04,33,14.10
2014,06,01,04,34,14.00
2014,06,01,04,35,14.00
2014,06,01,04,36,13.90
2014,06,01,04,37,13.80
2014,06,01,04,38,13.70
2014,06,01,04,39,13.60
2014,06,01,04,40,13.50
2014,06,01,04,41,13.50
2014,06,01,04,42,13.40
2014,06,01,04,43,13.40
2014,06,01,04,44,13.40
2014,06,01,04,45,13.40
2014,06,01,04,46,13.50
2014,06,01,04,47,13.50
2014,06,01,04,48,13.50
2014,06,01,04,49,13.50
2014,06,01,04,50,13.50
2014,06,01,04,51,13.50
2014,06,01,04,52,13.50
2014,06,01,04,53,13.60
2014,06,01,04,54,13.60
2014,06,01,04,55,13.60
2014,06,01,04,56,13.60
2014,06,01,04,57,13.60
2014,06,01,04,58,13.60
2014,06,01,04,59,13.60
2014,06,01,05,00,13.60
2014,06,01,05,01,13.60
2014,06,01,05,02,13.60
2014,06,01,05,03,13.50
2014,06,01,05,04,13.50
2014,06,01,05,05,13.40
2014,06,01,05,06,13.40
2014,06,01,05,07,13.30
2014,06,01,05,08,13.30
2014,06,01,05,09,13.30
2014,06,01,05,10,13.30
2014,06,01,05,11,13.30
2014,06,01,05,12,13.40
2014,06,01,05,13,13.40
2014,06,01,05,14,13.40
2014,06,01,05,15,13.30
2014,06,01,05,16,13.30
2014,06,01,05,17,13.30
2014,06,01,05,18,13.30
2014,06,01,05,19,13.30
2014,06,01,05,20,13.30
2014,06,01,05,21,13.30
2014,06,01,05,22,13.30
2014,06,01,05,23,13.30
2014,06,01,05,24,13.30
2014,06,01,05,25,13.30
2014,06,01,05,26,13.30
2014,06,01,05,27,13.20
2014,06,01,05,28,13.20
2014,06,01,05,29,13.20
2014,06,01,05,30,13.30
2014,06,01,05,31,13.30
2014,06,01,05,32,13.30
2014,06,01,05,33,13.30
2014,06,01,05,34,13.20
2014,06,01,05,35,13.20
2014,06,01,05,36,13.10
2014,06,01,05,37,13.10
2014,06,01,05,38,13.10
2014,06,01,05,39,13.00
2014,06,01,05,40,13.00
2014,06,01,05,41,13.00
2014,06,01,05,42,12.90
2014,06,01,05,43,12.90
2014,06,01,05,44,12.90
2014,06,01,05,45,12.90
2014,06,01,05,46,12.80
2014,06,01,05,47,12.90
2014,06,01,05,48,12.90
2014,06,01,05,49,12.90
2014,06,01,05,50,12.90
2014,06,01,05,51,12.90
2014,06,01,05,52,12.90
2014,06,01,05,53,12.80
2014,06,01,05,54,12.90
2014,06,01,05,55,12.90
2014,06,01,05,56,12.90
2014,06,01,05,57,12.90
2014,06,01,05,58,12.90
2014,06,01,05,59,12.90
2014,06,01,06,00,12.80
2014,06,01,06,01,12.80
2014,06,01,06,02,12.90
2014,06,01,06,03,12.90
2014,06,01,06,04,12.90
2014,06,01,06,05,12.90
2014,06,01,06,06,12.90
2014,06,01,06,07,12.90
2014,06,01,06,08,13.00
2014,06,01,06,09,13.00
2014,06,01,06,10,13.00
2014,06,01,06,11,12.90
2014,06,01,06,12,13.00
2014,06,01,06,13,13.00
2014,06,01,06,14,12.90
2014,06,01,06,15,12.90
2014,06,01,06,16,12.90
2014,06,01,06,17,12.90
2014,06,01,06,18,12.90
2014,06,01,06,19,12.90
2014,06,01,06,20,12.90
2014,06,01,06,21,12.90
2014,06,01,06,22,12.90
2014,06,01,06,23,12.90
2014,06,01,06,24,12.90
2014,06,01,06,25,12.90
2014,06,01,06,26,12.90
2014,06,01,06,27,12.90
2014,06,01,06,28,12.90
2014,06,01,06,29,12.90
2014,06,01,06,30,12.90
2014,06,01,06,31,12.90
2014,06,01,06,32,12.90
2014,06,01,06,33,13.00
2014,06,01,06,34,13.00
2014,06,01,06,35,13.00
2014,06,01,06,36,13.00
2014,06,01,06,37,13.00
2014,06,01,06,38,12.90
2014,06,01,06,39,12.90
2014,06,01,06,40,12.90
2014,06,01,06,41,12.80
2014,06,01,06,42,12.80
2014,06,01,06,43,12.80
2014,06,01,06,44,12.80
2014,06,01,06,45,12.80
2014,06,01,06,46,12.80
2014,06,01,06,47,12.70
2014,06,01,06,48,12.70
2014,06,01,06,49,12.70
2014,06,01,06,50,12.70
2014,06,01,06,51,12.70
2014,06,01,06,52,12.70
2014,06,01,06,53,12.70
2014,06,01,06,54,12.70
2014,06,01,06,55,12.70
2014,06,01,06,56,12.60
2014,06,01,06,57,12.60
2014,06,01,06,58,12.60
2014,06,01,06,59,12.60
2014,06,01,07,00,12.50
2014,06,01,07,01,12.50
2014,06,01,07,02,12.50
2014,06,01,07,03,12.60
2014,06,01,07,04,12.60
2014,06,01,07,05,12.70
2014,06,01,07,06,12.70
2014,06,01,07,07,12.60
2014,06,01,07,08,12.60
2014,06,01,07,09,12.60
2014,06,01,07,10,12.50
2014,06,01,07,11,12.50
2014,06,01,07,12,12.50
2014,06,01,07,13,12.40
2014,06,01,07,14,12.40
2014,06,01,07,15,12.40
2014,06,01,07,16,12.30
2014,06,01,07,17,12.30
2014,06,01,07,18,12.20
2014,06,01,07,19,12.20
2014,06,01,07,20,12.20
2014,06,01,07,21,12.10
2014,06,01,07,22,12.10
2014,06,01,07,23,12.00
2014,06,01,07,24,12.00
2014,06,01,07,25,11.90
2014,06,01,07,26,11.90
2014,06,01,07,27,11.90
2014,06,01,07,28,11.80
2014,06,01,07,29,11.80
2014,06,01,07,30,11.80
2014,06,01,07,31,11.80
2014,06,01,07,32,11.70
2014,06,01,07,33,11.70
2014,06,01,07,34,11.70
2014,06,01,07,35,11.70
2014,06,01,07,36,11.70
2014,06,01,07,37,11.70
2014,06,01,07,38,11.80
2014,06,01,07,39,11.80
2014,06,01,07,40,11.90
2014,06,01,07,41,12.00
2014,06,01,07,42,12.10
2014,06,01,07,43,12.20
2014,06,01,07,44,12.20
2014,06,01,07,45,12.20
2014,06,01,07,46,12.30
2014,06,01,07,47,12.30
2014,06,01,07,48,12.30
2014,06,01,07,49,12.30
2014,06,01,07,50,12.30
2014,06,01,07,51,12.30
2014,06,01,07,52,12.40
2014,06,01,07,53,12.40
2014,06,01,07,54,12.40
2014,06,01,07,55,12.40
2014,06,01,07,56,12.40
2014,06,01,07,57,12.40
2014,06,01,07,58,12.40
2014,06,01,07,59,12.40
2014,06,01,08,00,12.40
2014,06,01,08,01,12.50
2014,06,01,08,02,12.50
2014,06,01,08,03,12.60
2014,06,01,08,04,12.60
2014,06,01,08,05,12.60
2014,06,01,08,06,12.60
2014,06,01,08,07,12.60
2014,06,01,08,08,12.60
2014,06,01,08,09,12.60
2014,06,01,08,10,12.60
2014,06,01,08,11,12.60
2014,06,01,08,12,12.60
2014,06,01,08,13,12.50
2014,06,01,08,14,12.50
2014,06,01,08,15,12.50
2014,06,01,08,16,12.60
2014,06,01,08,17,12.60
2014,06,01,08,18,12.60
2014,06,01,08,19,12.60
2014,06,01,08,20,12.70
2014,06,01,08,21,12.70
2014,06,01,08,22,12.80
2014,06,01,08,23,12.80
2014,06,01,08,24,12.80
2014,06,01,08,25,12.80
2014,06,01,08,26,12.90
2014,06,01,08,27,12.90
2014,06,01,08,28,12.90
2014,06,01,08,29,12.90
2014,06,01,08,30,13.00
2014,06,01,08,31,13.00
2014,06,01,08,32,13.10
2014,06,01,08,33,13.10
2014,06,01,08,34,13.20
2014,06,01,08,35,13.20
2014,06,01,08,36,13.20
2014,06,01,08,37,13.20
2014,06,01,08,38,13.20
2014,06,01,08,39,13.30
2014,06,01,08,40,13.30
2014,06,01,08,41,13.30
2014,06,01,08,42,13.30
2014,06,01,08,43,13.30
2014,06,01,08,44,13.40
2014,06,01,08,45,13.40
2014,06,01,08,46,13.40
2014,06,01,08,47,13.40
2014,06,01,08,48,13.40
2014,06,01,08,49,13.40
2014,06,01,08,50,13.40
2014,06,01,08,51,13.40
2014,06,01,08,52,13.40
2014,06,01,08,53,13.40
2014,06,01,08,54,13.30
2014,06,01,08,55,13.30
2014,06,01,08,56,13.30
2014,06,01,08,57,13.20
2014,06,01,08,58,13.20
2014,06,01,08,59,13.20
2014,06,01,09,00,13.20
2014,06,01,09,01,13.10
2014,06,01,09,02,13.10
2014,06,01,09,03,13.10
2014,06,01,09,04,13.10
2014,06,01,09,05,13.10
2014,06,01,09,06,13.10
2014,06,01,09,07,13.10
2014,06,01,09,08,13.10
2014,06,01,09,09,13.20
2014,06,01,09,10,13.20
2014,06,01,09,11,13.20
2014,06,01,09,12,13.20
2014,06,01,09,13,13.20
2014,06,01,09,14,13.20
2014,06,01,09,15,13.20
2014,06,01,09,16,13.20
2014,06,01,09,17,13.20
2014,06,01,09,18,13.20
2014,06,01,09,19,13.10
2014,06,01,09,20,13.10
2014,06,01,09,21,13.20
2014,06,01,09,22,13.20
2014,06,01,09,23,13.20
2014,06,01,09,24,13.20
2014,06,01,09,25,13.20
2014,06,01,09,26,13.20
2014,06,01,09,27,13.20
2014,06,01,09,28,13.20
2014,06,01,09,29,13.20
2014,06,01,09,30,13.30
2014,06,01,09,31,13.30
2014,06,01,09,32,13.30
2014,06,01,09,33,13.30
2014,06,01,09,34,13.30
2014,06,01,09,35,13.30
2014,06,01,09,36,13.30
2014,06,01,09,37,13.40
2014,06,01,09,38,13.40
2014,06,01,09,39,13.50
2014,06,01,09,40,13.60
2014,06,01,09,41,13.60
2014,06,01,09,42,13.70
2014,06,01,09,43,13.70
2014,06,01,09,44,13.80
2014,06,01,09,45,13.80
2014,06,01,09,46,13.90
2014,06,01,09,47,14.00
2014,06,01,09,48,14.10
2014,06,01,09,49,14.20
2014,06,01,09,50,14.30
2014,06,01,09,51,14.30
2014,06,01,09,52,14.50
2014,06,01,09,53,14.60
2014,06,01,09,54,14.80
2014,06,01,09,55,14.80
2014,06,01,09,56,14.90
2014,06,01,09,57,15.00
2014,06,01,09,58,15.10
2014,06,01,09,59,15.20
2014,06,01,10,00,15.30
2014,06,01,10,01,15.50
2014,06,01,10,02,15.60
2014,06,01,10,03,15.70
2014,06,01,10,04,15.80
2014,06,01,10,05,15.90
2014,06,01,10,06,16.00
2014,06,01,10,07,16.10
2014,06,01,10,08,16.20
2014,06,01,10,09,16.20
2014,06,01,10,10,16.30
2014,06,01,10,11,16.40
2014,06,01,10,12,16.40
2014,06,01,10,13,16.50
2014,06,01,10,14,16.50
2014,06,01,10,15,16.50
2014,06,01,10,16,16.60
2014,06,01,10,17,16.70
2014,06,01,10,18,16.80
2014,06,01,10,19,16.90
2014,06,01,10,20,16.90
2014,06,01,10,21,17.00
2014,06,01,10,22,17.00
2014,06,01,10,23,17.00
2014,06,01,10,24,17.10
2014,06,01,10,25,17.10
2014,06,01,10,26,17.20
2014,06,01,10,27,17.20
2014,06,01,10,28,17.30
2014,06,01,10,29,17.30
2014,06,01,10,30,17.40
2014,06,01,10,31,17.40
2014,06,01,10,32,17.50
2014,06,01,10,33,17.60
2014,06,01,10,34,17.70
2014,06,01,10,35,17.80
2014,06,01,10,36,17.80
2014,06,01,10,37,17.80
2014,06,01,10,38,17.90
2014,06,01,10,39,17.90
2014,06,01,10,40,17.90
2014,06,01,10,41,17.90
2014,06,01,10,42,17.90
2014,06,01,10,43,18.00
2014,06,01,10,44,18.00
2014,06,01,10,45,18.10
2014,06,01,10,46,18.10
2014,06,01,10,47,18.20
2014,06,01,10,48,18.20
2014,06,01,10,49,18.30
2014,06,01,10,50,18.30
2014,06,01,10,51,18.40
2014,06,01,10,52,18.50
2014,06,01,10,53,18.50
2014,06,01,10,54,18.60
2014,06,01,10,55,18.70
2014,06,01,10,56,18.80
2014,06,01,10,57,19.00
2014,06,01,10,58,19.00
2014,06,01,10,59,19.00
2014,06,01,11,00,19.10
2014,06,01,11,01,19.10
2014,06,01,11,02,19.10
2014,06,01,11,03,19.10
2014,06,01,11,04,19.10
2014,06,01,11,05,19.10
2014,06,01,11,06,19.10
2014,06,01,11,07,19.10
2014,06,01,11,08,19.10
2014,06,01,11,09,19.10
2014,06,01,11,10,19.10
2014,06,01,11,11,19.20
2014,06,01,11,12,19.20
2014,06,01,11,13,19.20
2014,06,01,11,14,19.20
2014,06,01,11,15,19.30
2014,06,01,11,16,19.30
2014,06,01,11,17,19.30
2014,06,01,11,18,19.40
2014,06,01,11,19,19.40
2014,06,01,11,20,19.40
2014,06,01,11,21,19.30
2014,06,01,11,22,19.30
2014,06,01,11,23,19.20
2014,06,01,11,24,19.20
2014,06,01,11,25,19.10
2014,06,01,11,26,19.10
2014,06,01,11,27,19.10
2014,06,01,11,28,19.10
2014,06,01,11,29,19.10
2014,06,01,11,30,19.20
2014,06,01,11,31,19.30
2014,06,01,11,32,19.40
2014,06,01,11,33,19.50
2014,06,01,11,34,19.60
2014,06,01,11,35,19.60
2014,06,01,11,36,19.70
2014,06,01,11,37,19.70
2014,06,01,11,38,19.80
2014,06,01,11,39,19.80
2014,06,01,11,40,19.80
2014,06,01,11,41,19.80
2014,06,01,11,42,19.90
2014,06,01,11,43,19.90
2014,06,01,11,44,19.80
2014,06,01,11,45,19.80
2014,06,01,11,46,19.80
2014,06,01,11,47,19.70
2014,06,01,11,48,19.70
2014,06,01,11,49,19.70
2014,06,01,11,50,19.70
2014,06,01,11,51,19.70
2014,06,01,11,52,19.60
2014,06,01,11,53,19.50
2014,06,01,11,54,19.40
2014,06,01,11,55,19.30
2014,06,01,11,56,19.30
2014,06,01,11,57,19.20
2014,06,01,11,58,19.10
2014,06,01,11,59,19.00
2014,06,01,12,00,18.90
2014,06,01,12,01,18.80
2014,06,01,12,02,18.60
2014,06,01,12,03,18.50
2014,06,01,12,04,18.40
2014,06,01,12,05,18.30
2014,06,01,12,06,18.20
2014,06,01,12,07,18.20
2014,06,01,12,08,18.20
2014,06,01,12,09,18.10
2014,06,01,12,10,18.00
2014,06,01,12,11,17.90
2014,06,01,12,12,17.80
2014,06,01,12,13,17.70
2014,06,01,12,14,17.60
2014,06,01,12,15,17.60
2014,06,01,12,16,17.60
2014,06,01,12,17,17.60
2014,06,01,12,18,17.60
2014,06,01,12,19,17.60
2014,06,01,12,20,17.60
2014,06,01,12,21,17.60
2014,06,01,12,22,17.60
2014,06,01,12,23,17.60
2014,06,01,12,24,17.60
2014,06,01,12,25,17.60
2014,06,01,12,26,17.50
2014,06,01,12,27,17.50
2014,06,01,12,28,17.50
2014,06,01,12,29,17.50
2014,06,01,12,30,17.50
2014,06,01,12,31,17.50
2014,06,01,12,32,17.50
2014,06,01,12,33,17.50
2014,06,01,12,34,17.50
2014,06,01,12,35,17.50
2014,06,01,12,36,17.60
2014,06,01,12,37,17.60
2014,06,01,12,38,17.70
2014,06,01,12,39,17.70
2014,06,01,12,40,17.70
2014,06,01,12,41,17.70
2014,06,01,12,42,17.80
2014,06,01,12,43,17.70
2014,06,01,12,44,17.70
2014,06,01,12,45,17.60
2014,06,01,12,46,17.50
2014,06,01,12,47,17.50
2014,06,01,12,48,17.40
2014,06,01,12,49,17.40
2014,06,01,12,50,17.40
2014,06,01,12,51,17.40
2014,06,01,12,52,17.40
2014,06,01,12,53,17.50
2014,06,01,12,54,17.50
2014,06,01,12,55,17.60
2014,06,01,12,56,17.60
2014,06,01,12,57,17.60
2014,06,01,12,58,17.60
2014,06,01,12,59,17.60
2014,06,01,13,00,17.70
2014,06,01,13,01,17.70
2014,06,01,13,02,17.60
2014,06,01,13,03,17.60
2014,06,01,13,04,17.60
2014,06,01,13,05,17.70
2014,06,01,13,06,17.70
2014,06,01,13,07,17.80
2014,06,01,13,08,17.80
2014,06,01,13,09,17.80
2014,06,01,13,10,17.80
2014,06,01,13,11,17.80
2014,06,01,13,12,17.80
2014,06,01,13,13,17.80
2014,06,01,13,14,17.80
2014,06,01,13,15,17.80
2014,06,01,13,16,17.80
2014,06,01,13,17,17.80
2014,06,01,13,18,17.80
2014,06,01,13,19,17.80
2014,06,01,13,20,17.80
2014,06,01,13,21,17.80
2014,06,01,13,22,17.80
2014,06,01,13,23,17.80
2014,06,01,13,24,17.80
2014,06,01,13,25,17.80
2014,06,01,13,26,17.80
2014,06,01,13,27,17.80
2014,06,01,13,28,17.90
2014,06,01,13,29,17.80
2014,06,01,13,30,17.80
2014,06,01,13,31,17.80
2014,06,01,13,32,17.80
2014,06,01,13,33,17.90
2014,06,01,13,34,18.00
2014,06,01,13,35,18.10
2014,06,01,13,36,18.10
2014,06,01,13,37,18.00
2014,06,01,13,38,18.00
2014,06,01,13,39,18.00
2014,06,01,13,40,18.00
2014,06,01,13,41,18.00
2014,06,01,13,42,18.00
2014,06,01,13,43,18.00
2014,06,01,13,44,18.00
2014,06,01,13,45,17.90
2014,06,01,13,46,17.90
2014,06,01,13,47,17.90
2014,06,01,13,48,17.80
2014,06,01,13,49,17.80
2014,06,01,13,50,17.70
2014,06,01,13,51,17.80
2014,06,01,13,52,17.80
2014,06,01,13,53,17.80
2014,06,01,13,54,17.80
2014,06,01,13,55,17.80
2014,06,01,13,56,17.90
2014,06,01,13,57,18.00
2014,06,01,13,58,18.00
2014,06,01,13,59,18.10
2014,06,01,14,00,18.10
2014,06,01,14,01,18.20
2014,06,01,14,02,18.30
2014,06,01,14,03,18.30
2014,06,01,14,04,18.20
2014,06,01,14,05,18.20
2014,06,01,14,06,18.20
2014,06,01,14,07,18.20
2014,06,01,14,08,18.30
2014,06,01,14,09,18.30
2014,06,01,14,10,18.40
2014,06,01,14,11,18.40
2014,06,01,14,12,18.50
2014,06,01,14,13,18.50
2014,06,01,14,14,18.60
2014,06,01,14,15,18.60
2014,06,01,14,16,18.70
2014,06,01,14,17,18.70
2014,06,01,14,18,18.70
2014,06,01,14,19,18.60
2014,06,01,14,20,18.60
2014,06,01,14,21,18.60
2014,06,01,14,22,18.60
2014,06,01,14,23,18.60
2014,06,01,14,24,18.60
2014,06,01,14,25,18.60
2014,06,01,14,26,18.60
2014,06,01,14,27,18.60
2014,06,01,14,28,18.70
2014,06,01,14,29,18.70
2014,06,01,14,30,18.70
2014,06,01,14,31,18.80
2014,06,01,14,32,18.90
2014,06,01,14,33,19.00
2014,06,01,14,34,19.10
2014,06,01,14,35,19.20
2014,06,01,14,36,19.20
2014,06,01,14,37,19.30
2014,06,01,14,38,19.30
2014,06,01,14,39,19.40
2014,06,01,14,40,19.40
2014,06,01,14,41,19.40
2014,06,01,14,42,19.40
2014,06,01,14,43,19.40
2014,06,01,14,44,19.30
2014,06,01,14,45,19.30
2014,06,01,14,46,19.30
2014,06,01,14,47,19.20
2014,06,01,14,48,19.20
2014,06,01,14,49,19.20
2014,06,01,14,50,19.20
2014,06,01,14,51,19.30
2014,06,01,14,52,19.20
2014,06,01,14,53,19.20
2014,06,01,14,54,19.20
2014,06,01,14,55,19.20
2014,06,01,14,56,19.20
2014,06,01,14,57,19.20
2014,06,01,14,58,19.20
2014,06,01,14,59,19.10
2014,06,01,15,00,19.10
2014,06,01,15,01,19.20
2014,06,01,15,02,19.20
2014,06,01,15,03,19.30
2014,06,01,15,04,19.30
2014,06,01,15,05,19.40
2014,06,01,15,06,19.40
2014,06,01,15,07,19.40
2014,06,01,15,08,19.30
2014,06,01,15,09,19.30
2014,06,01,15,10,19.20
2014,06,01,15,11,19.20
2014,06,01,15,12,19.20
2014,06,01,15,13,19.10
2014,06,01,15,14,19.10
2014,06,01,15,15,19.10
2014,06,01,15,16,19.00
2014,06,01,15,17,19.10
2014,06,01,15,18,19.10
2014,06,01,15,19,19.10
2014,06,01,15,20,19.10
2014,06,01,15,21,19.10
2014,06,01,15,22,19.10
2014,06,01,15,23,19.10
2014,06,01,15,24,19.00
2014,06,01,15,25,19.00
2014,06,01,15,26,19.00
2014,06,01,15,27,19.00
2014,06,01,15,28,19.00
2014,06,01,15,29,19.00
2014,06,01,15,30,19.00
2014,06,01,15,31,19.00
2014,06,01,15,32,19.00
2014,06,01,15,33,19.00
2014,06,01,15,34,19.10
2014,06,01,15,35,19.20
2014,06,01,15,36,19.20
2014,06,01,15,37,19.30
2014,06,01,15,38,19.30
2014,06,01,15,39,19.30
2014,06,01,15,40,19.40
2014,06,01,15,41,19.40
2014,06,01,15,42,19.30
2014,06,01,15,43,19.20
2014,06,01,15,44,19.20
2014,06,01,15,45,19.20
2014,06,01,15,46,19.20
2014,06,01,15,47,19.20
2014,06,01,15,48,19.30
2014,06,01,15,49,19.40
2014,06,01,15,50,19.50
2014,06,01,15,51,19.50
2014,06,01,15,52,19.60
2014,06,01,15,53,19.70
2014,06,01,15,54,19.80
2014,06,01,15,55,19.80
2014,06,01,15,56,19.90
2014,06,01,15,57,20.00
2014,06,01,15,58,20.00
2014,06,01,15,59,20.10
2014,06,01,16,00,20.10
2014,06,01,16,01,20.10
2014,06,01,16,02,20.10
2014,06,01,16,03,20.10
2014,06,01,16,04,20.10
2014,06,01,16,05,20.10
2014,06,01,16,06,20.10
2014,06,01,16,07,20.10
2014,06,01,16,08,20.20
2014,06,01,16,09,20.30
2014,06,01,16,10,20.30
2014,06,01,16,11,20.40
2014,06,01,16,12,20.40
2014,06,01,16,13,20.40
2014,06,01,16,14,20.40
2014,06,01,16,15,20.50
2014,06,01,16,16,20.60
2014,06,01,16,17,20.70
2014,06,01,16,18,20.70
2014,06,01,16,19,20.70
2014,06,01,16,20,20.80
2014,06,01,16,21,20.80
2014,06,01,16,22,20.90
2014,06,01,16,23,20.90
2014,06,01,16,24,20.90
2014,06,01,16,25,21.00
2014,06,01,16,26,21.00
2014,06,01,16,27,21.00
2014,06,01,16,28,20.90
2014,06,01,16,29,20.90
2014,06,01,16,30,20.90
2014,06,01,16,31,20.90
2014,06,01,16,32,20.80
2014,06,01,16,33,20.80
2014,06,01,16,34,20.80
2014,06,01,16,35,20.70
2014,06,01,16,36,20.70
2014,06,01,16,37,20.70
2014,06,01,16,38,20.70
2014,06,01,16,39,20.70
2014,06,01,16,40,20.60
2014,06,01,16,41,20.60
2014,06,01,16,42,20.60
2014,06,01,16,43,20.60
2014,06,01,16,44,20.60
2014,06,01,16,45,20.60
2014,06,01,16,46,20.60
2014,06,01,16,47,20.60
2014,06,01,16,48,20.60
2014,06,01,16,49,20.60
2014,06,01,16,50,20.60
2014,06,01,16,51,20.60
2014,06,01,16,52,20.50
2014,06,01,16,53,20.50
2014,06,01,16,54,20.50
2014,06,01,16,55,20.40
2014,06,01,16,56,20.40
2014,06,01,16,57,20.40
2014,06,01,16,58,20.40
2014,06,01,16,59,20.40
2014,06,01,17,00,20.50
2014,06,01,17,01,20.50
2014,06,01,17,02,20.50
2014,06,01,17,03,20.60
2014,06,01,17,04,20.60
2014,06,01,17,05,20.60
2014,06,01,17,06,20.60
2014,06,01,17,07,20.50
2014,06,01,17,08,20.50
2014,06,01,17,09,20.50
2014,06,01,17,10,20.40
2014,06,01,17,11,20.40
2014,06,01,17,12,20.40
2014,06,01,17,13,20.40
2014,06,01,17,14,20.50
2014,06,01,17,15,20.50
2014,06,01,17,16,20.60
2014,06,01,17,17,20.60
2014,06,01,17,18,20.60
2014,06,01,17,19,20.60